Stündliche Wetter Holykove

Heute, 16 Juni, Mittwoch

Zeit Temperatur Niederschläge Wind Luftdruck Luftfeuchtigkeit
00:00 +18°C° 0.3 mm 2 m/S 741 mmHg 91%
01:00 +18°C° 0.3 mm 2 m/S 741 mmHg 92%
02:00 +17°C° 0 mm 2 m/S 741 mmHg 92%
03:00 +17°C° 0.1 mm 2 m/S 741 mmHg 92%
04:00 +17°C° 0.1 mm 2 m/S 741 mmHg 93%
05:00 +17°C° 0.1 mm 2 m/S 741 mmHg 93%
06:00 +18°C° 0.5 mm 2 m/S 742 mmHg 92%
07:00 +18°C° 0.5 mm 2 m/S 742 mmHg 91%
08:00 +19°C° 0.5 mm 2 m/S 742 mmHg 89%
09:00 +20°C° 1.1 mm 2 m/S 742 mmHg 84%
10:00 +21°C° 1.1 mm 2 m/S 743 mmHg 79%
11:00 +23°C° 1.1 mm 2 m/S 743 mmHg 74%
12:00 +22°C° 0.9 mm 3 m/S 743 mmHg 77%
13:00 +21°C° 0.9 mm 3 m/S 743 mmHg 79%
14:00 +21°C° 0.9 mm 3 m/S 743 mmHg 82%
15:00 +21°C° 0.4 mm 3 m/S 743 mmHg 83%
16:00 +21°C° 0.4 mm 3 m/S 743 mmHg 84%
17:00 +20°C° 0.4 mm 3 m/S 743 mmHg 85%
18:00 +20°C° 0.3 mm 3 m/S 743 mmHg 86%
19:00 +19°C° 0.3 mm 2 m/S 743 mmHg 87%
20:00 +19°C° 0.3 mm 2 m/S 744 mmHg 88%
21:00 +18°C° 0.2 mm 2 m/S 744 mmHg 89%
22:00 +18°C° 0.2 mm 2 m/S 744 mmHg 90%
23:00 +17°C° 0.2 mm 2 m/S 744 mmHg 91%

Morgen, 17 Juni, Donnerstag

Zeit Temperatur Niederschläge Wind Luftdruck Luftfeuchtigkeit
00:00 +17°C° 0 mm 2 m/S 744 mmHg 92%
01:00 +17°C° 0 mm 2 m/S 744 mmHg 93%
02:00 +17°C° 0 mm 3 m/S 744 mmHg 94%
03:00 +17°C° 0 mm 3 m/S 744 mmHg 94%
04:00 +17°C° 0 mm 3 m/S 745 mmHg 95%
05:00 +17°C° 0 mm 3 m/S 745 mmHg 95%
06:00 +19°C° 0 mm 3 m/S 745 mmHg 91%
07:00 +20°C° 0 mm 4 m/S 745 mmHg 87%
08:00 +21°C° 0 mm 5 m/S 746 mmHg 84%
09:00 +21°C° 0.8 mm 5 m/S 746 mmHg 85%
10:00 +21°C° 0.8 mm 5 m/S 746 mmHg 86%
11:00 +21°C° 0.8 mm 5 m/S 746 mmHg 87%
12:00 +22°C° 0.3 mm 5 m/S 746 mmHg 85%
13:00 +22°C° 0.3 mm 5 m/S 746 mmHg 84%
14:00 +23°C° 0.3 mm 5 m/S 746 mmHg 82%
15:00 +23°C° 0.5 mm 5 m/S 747 mmHg 82%
16:00 +23°C° 0.5 mm 5 m/S 747 mmHg 82%
17:00 +25°C° 0.5 mm 5 m/S 747 mmHg 82%
18:00 +23°C° 0.7 mm 5 m/S 747 mmHg 85%
19:00 +22°C° 0.7 mm 5 m/S 747 mmHg 89%
20:00 +21°C° 0.7 mm 5 m/S 747 mmHg 92%
21:00 +20°C° 0.5 mm 5 m/S 748 mmHg 93%
22:00 +20°C° 0.5 mm 6 m/S 748 mmHg 93%
23:00 +20°C° 0.5 mm 6 m/S 748 mmHg 94%

übermorgen, 18 Juni, Freitag

Zeit Temperatur Niederschläge Wind Luftdruck Luftfeuchtigkeit
00:00 +19°C° 0 mm 6 m/S 748 mmHg 94%
01:00 +19°C° 0 mm 6 m/S 748 mmHg 94%
02:00 +17°C° 0 mm 6 m/S 748 mmHg 94%
03:00 +17°C° 0 mm 7 m/S 748 mmHg 93%
04:00 +17°C° 0 mm 7 m/S 748 mmHg 92%
05:00 +17°C° 0 mm 7 m/S 748 mmHg 92%
06:00 +17°C° 0 mm 7 m/S 748 mmHg 88%
07:00 +18°C° 0 mm 7 m/S 748 mmHg 85%
08:00 +20°C° 0 mm 7 m/S 749 mmHg 82%
09:00 +21°C° 0 mm 7 m/S 749 mmHg 82%
10:00 +21°C° 0 mm 7 m/S 749 mmHg 81%
11:00 +22°C° 0 mm 7 m/S 749 mmHg 81%
12:00 +22°C° 0.1 mm 7 m/S 749 mmHg 80%
13:00 +23°C° 0.1 mm 7 m/S 749 mmHg 79%
14:00 +23°C° 0.1 mm 7 m/S 749 mmHg 77%
15:00 +23°C° 0.2 mm 7 m/S 749 mmHg 78%
16:00 +23°C° 0.2 mm 7 m/S 749 mmHg 79%
17:00 +23°C° 0.2 mm 7 m/S 749 mmHg 80%
18:00 +22°C° 0.3 mm 6 m/S 750 mmHg 83%
19:00 +21°C° 0.3 mm 5 m/S 750 mmHg 87%
20:00 +20°C° 0.3 mm 4 m/S 750 mmHg 90%
21:00 +20°C° 0.1 mm 3 m/S 750 mmHg 91%
22:00 +19°C° 0.1 mm 3 m/S 750 mmHg 91%
23:00 +19°C° 0.1 mm 3 m/S 750 mmHg 92%

19 Juni, Samstag

Zeit Temperatur Niederschläge Wind Luftdruck Luftfeuchtigkeit
00:00 +19°C° 0.1 mm 3 m/S 750 mmHg 93%
01:00 +19°C° 0.1 mm 3 m/S 750 mmHg 93%
02:00 +18°C° 0.1 mm 4 m/S 750 mmHg 94%
03:00 +18°C° 0 mm 4 m/S 750 mmHg 93%
04:00 +18°C° 0 mm 4 m/S 750 mmHg 93%
05:00 +18°C° 0 mm 4 m/S 750 mmHg 92%
06:00 +19°C° 0 mm 5 m/S 750 mmHg 88%
07:00 +20°C° 0 mm 5 m/S 750 mmHg 84%
08:00 +20°C° 0 mm 6 m/S 750 mmHg 80%
09:00 +21°C° 0 mm 6 m/S 750 mmHg 76%
10:00 +22°C° 0 mm 6 m/S 750 mmHg 72%
11:00 +23°C° 0 mm 6 m/S 750 mmHg 68%
12:00 +24°C° 0 mm 7 m/S 750 mmHg 65%
13:00 +24°C° 0 mm 7 m/S 750 mmHg 63%
14:00 +26°C° 0 mm 7 m/S 750 mmHg 61%
15:00 +26°C° 0 mm 7 m/S 750 mmHg 64%
16:00 +24°C° 0 mm 6 m/S 750 mmHg 67%
17:00 +24°C° 0 mm 6 m/S 749 mmHg 70%
18:00 +23°C° 0 mm 5 m/S 750 mmHg 74%
19:00 +22°C° 0 mm 5 m/S 750 mmHg 78%
20:00 +21°C° 0 mm 4 m/S 750 mmHg 83%
21:00 +20°C° 0 mm 4 m/S 750 mmHg 86%
22:00 +19°C° 0 mm 4 m/S 750 mmHg 88%
23:00 +18°C° 0 mm 4 m/S 750 mmHg 91%

20 Juni, Sonntag

Zeit Temperatur Niederschläge Wind Luftdruck Luftfeuchtigkeit
00:00 +18°C° 0 mm 4 m/S 750 mmHg 92%
01:00 +17°C° 0 mm 4 m/S 750 mmHg 92%
02:00 +17°C° 0 mm 4 m/S 750 mmHg 92%
03:00 +17°C° 0 mm 4 m/S 750 mmHg 91%
04:00 +17°C° 0 mm 4 m/S 750 mmHg 89%
05:00 +17°C° 0 mm 4 m/S 750 mmHg 87%
06:00 +19°C° 0 mm 5 m/S 749 mmHg 81%
07:00 +20°C° 0 mm 5 m/S 749 mmHg 76%
08:00 +21°C° 0 mm 6 m/S 749 mmHg 70%
09:00 +22°C° 0 mm 6 m/S 749 mmHg 65%
10:00 +23°C° 0 mm 6 m/S 749 mmHg 61%
11:00 +24°C° 0 mm 6 m/S 749 mmHg 56%
12:00 +26°C° 0 mm 6 m/S 749 mmHg 55%
13:00 +26°C° 0 mm 6 m/S 749 mmHg 54%
14:00 +27°C° 0 mm 7 m/S 748 mmHg 53%
15:00 +27°C° 0 mm 6 m/S 748 mmHg 57%
16:00 +26°C° 0 mm 6 m/S 748 mmHg 61%
17:00 +26°C° 0 mm 6 m/S 748 mmHg 65%
18:00 +23°C° 0 mm 5 m/S 748 mmHg 70%
19:00 +22°C° 0 mm 5 m/S 748 mmHg 76%
20:00 +21°C° 0 mm 4 m/S 748 mmHg 82%
21:00 +20°C° 0 mm 4 m/S 747 mmHg 83%
22:00 +20°C° 0 mm 4 m/S 747 mmHg 84%
23:00 +20°C° 0 mm 4 m/S 747 mmHg 85%

21 Juni, Montag

Zeit Temperatur Niederschläge Wind Luftdruck Luftfeuchtigkeit
00:00 +19°C° 0 mm 4 m/S 747 mmHg 86%
01:00 +19°C° 0 mm 4 m/S 746 mmHg 87%
02:00 +18°C° 0 mm 4 m/S 746 mmHg 87%
03:00 +18°C° 0.1 mm 4 m/S 746 mmHg 87%
04:00 +18°C° 0.1 mm 4 m/S 746 mmHg 87%
05:00 +18°C° 0.1 mm 4 m/S 746 mmHg 87%
06:00 +19°C° 0 mm 4 m/S 746 mmHg 81%
07:00 +21°C° 0 mm 5 m/S 746 mmHg 76%
08:00 +22°C° 0 mm 5 m/S 745 mmHg 70%
09:00 +23°C° 0 mm 5 m/S 745 mmHg 67%
10:00 +26°C° 0 mm 5 m/S 745 mmHg 64%
11:00 +27°C° 0 mm 5 m/S 745 mmHg 61%
12:00 +27°C° 0 mm 5 m/S 745 mmHg 58%
13:00 +28°C° 0 mm 6 m/S 745 mmHg 56%
14:00 +29°C° 0 mm 6 m/S 745 mmHg 54%
15:00 +28°C° 0 mm 5 m/S 745 mmHg 57%
16:00 +28°C° 0 mm 5 m/S 745 mmHg 59%
17:00 +28°C° 0 mm 4 m/S 745 mmHg 61%
18:00 +26°C° 0 mm 4 m/S 745 mmHg 67%
19:00 +25°C° 0 mm 3 m/S 745 mmHg 72%
20:00 +22°C° 0 mm 3 m/S 744 mmHg 77%
21:00 +21°C° 0 mm 3 m/S 744 mmHg 79%
22:00 +21°C° 0 mm 3 m/S 744 mmHg 81%
23:00 +20°C° 0 mm 3 m/S 744 mmHg 82%
Mehr zeigen

Wir brauchen deine Erlaubnis

Meteoprog und unser Service Anbieter werden persönliche Daten aufbewahren, so wie Cookies, Geräte Bezeichnung oder ähnliche Technologien von deinem Gerät und Prozess, so wie Persönliche Daten Inhalte und Werbungen, genauso wie social Media und den Verkehr zu analysieren.

  • Aufbewahrung und/oder Zugang zu deiner Geräte Informationen.

    Cookies, Geräte Bezeichnung oder andere Informationen, können aufbewahrt oder Zugang zu deinem Gerät erhalten, für den Grund, der oben angegeben wird.

  • Personalisierte Werbung und Inhalte, Messungen, Einblick in das Publikum und Produkt Entwicklung.

    Werbungen und Inhalte können personalisiert werden, basierend auf ein Profil. Mehr Daten können besser personalisierte Werbungen und Inhalte hinzufügen. Werbung und Inhalte können gezeigt und gemessen werden. Einblicke über das Publikum, welche die Werbung gesehen haben und den Inhalt, können abgeleitet werden. So wie Daten können genutzt werden, um es zu verbessern oder die Benutzer Erfahrung zu verbessern das System und die Software.

Wenn du “Ich stimme zu” klickst, erlaubst du uns, die Cookies zu benutzen die Geräte Bezeichnung, den Web oder ähnliche Technologien zu benutzen. Deine Settings, können in deinem Gerät bei deinem Browser geändert werden.

Für den bestimmten Zweck, berechtigten Interessen beruhen darauf, mehr als auf den Inhalt. Du kannst mehr darüber in unseren Privaten und Cookie Politik lesen.